This is the latest recevied weather packets stored in our database for station/object AC1IX. If no packets are shown the sender has not sent any weather packets the latest 10 day(s).
| Time | Temp. | Humidity | Pressure | Rain* | Wind** | Luminosity | Snow |
|---|---|---|---|---|---|---|---|
| 1777441313 | 10° C | 54% | 1018.7 hPa | 0 mm | - | 0 W/m² | - |
| 1777441008 | 10° C | 54% | 1018.5 hPa | 0 mm | - | 0 W/m² | - |
| 1777440705 | 10° C | 53% | 1018.5 hPa | 0 mm | - | 0 W/m² | - |
| 1777440405 | 10° C | 53% | 1018.4 hPa | 0 mm | - | 0 W/m² | - |
| 1777440102 | 10° C | 54% | 1018.5 hPa | 0 mm | - | 0 W/m² | - |
| 1777439797 | 10° C | 53% | 1018.5 hPa | 0 mm | - | 0 W/m² | - |
| 1777439494 | 10° C | 53% | 1019 hPa | 0 mm | - | 0 W/m² | - |
| 1777439189 | 9.44° C | 53% | 1018.6 hPa | 0 mm | - | 0 W/m² | - |
| 1777438886 | 9.44° C | 56% | 1019.1 hPa | 0 mm | - | 0 W/m² | - |
| 1777438583 | 9.44° C | 54% | 1019.2 hPa | 0 mm | - | 0 W/m² | - |
| 1777438280 | 9.44° C | 54% | 1019.1 hPa | 0 mm | - | 0 W/m² | - |
| 1777437980 | 9.44° C | 54% | 1018.9 hPa | 0 mm | - | 0 W/m² | - |
| 1777437677 | 9.44° C | 54% | 1019 hPa | 0 mm | - | 0 W/m² | - |
| 1777437374 | 9.44° C | 56% | 1018.7 hPa | 0 mm | - | 0 W/m² | - |
| 1777437070 | 9.44° C | 55% | 1018.9 hPa | 0 mm | - | 0 W/m² | - |
| 1777436766 | 9.44° C | 53% | 1018.9 hPa | 0 mm | - | 0 W/m² | - |
| 1777436463 | 8.89° C | 55% | 1018.7 hPa | 0 mm | - | 0 W/m² | - |
| 1777436160 | 8.89° C | 57% | 1018.5 hPa | 0 mm | - | 0 W/m² | - |
| 1777435856 | 8.89° C | 57% | 1018.3 hPa | 0 mm | - | 0 W/m² | - |
| 1777435552 | 9.44° C | 57% | 1018 hPa | 0 mm | - | 0 W/m² | - |
| 1777435248 | 9.44° C | 56% | 1018 hPa | 0 mm | - | 0 W/m² | - |
| 1777434947 | 9.44° C | 55% | 1018.3 hPa | 0 mm | - | 0 W/m² | - |
| 1777434643 | 9.44° C | 56% | 1017.9 hPa | 0 mm | - | 0 W/m² | - |
| 1777434338 | 9.44° C | 57% | 1017.7 hPa | 0 mm | - | 0 W/m² | - |
| 1777434037 | 9.44° C | 56% | 1017.5 hPa | 0 mm | - | 0 W/m² | - |
* Rain latest hour (hover to see other rain measurements)
** Current wind speed in m/s (hover to see current wind gust speed)